START_TIME,STEP,MOV.,A46,t_acc.,A13,t_acc.,M47,t_acc.,A17,t_acc.,A28,t_acc.,M38,t_acc.
1979-03-01 12:00:14.960 ,4,0,,0,0.,4.8,0.,4.8,,0,0.,4.8,0.,4.8
1979-03-01 12:00:19.760 ,4,0,,0,0.,4.8,0.,4.8,,0,0.,4.8,0.,4.8
1979-03-01 12:00:24.560 ,4,0,,0,0.,4.8,0.,4.8,,0,0.,4.8,2.,4.8
1979-03-01 12:00:29.360 ,4,0,,0,0.,4.8,0.,4.8,,0,0.,4.8,2.,4.8
1979-03-01 12:00:34.160 ,4,0,,0,0.,4.8,0.,4.8,,0,0.,4.8,1.,4.8
1979-03-01 12:00:38.960 ,3,0,,0,0.,4.8,0.,4.8,,0,0.,4.8,1.,4.8
1979-03-01 12:00:43.760 ,3,0,,0,0.,4.8,0.,4.8,,0,0.,4.8,4.,4.8
1979-03-01 12:00:48.560 ,3,0,,0,0.,4.8,0.,4.8,,0,0.,4.8,5.,4.8
1979-03-01 12:00:53.360 ,3,0,,0,0.,4.8,0.,4.8,,0,0.,4.8,2.,4.8
1979-03-01 12:00:58.160 ,3,0,,0,0.,4.8,0.,4.8,,0,0.,4.8,4.,4.8
1979-03-01 12:01:02.960 ,2,0,,0,0.,4.8,0.,4.8,,0,0.,4.8,4.,4.8
1979-03-01 12:01:07.760 ,2,0,,0,0.,4.8,0.,4.8,,0,0.,4.8,2.,4.8
1979-03-01 12:01:12.560 ,2,0,,0,0.,4.8,0.,4.8,,0,0.,4.8,0.,4.8
1979-03-01 12:01:17.360 ,2,0,,0,0.,4.8,0.,4.8,,0,0.,4.8,0.,4.8
1979-03-01 12:01:22.160 ,2,0,,0,0.,4.8,0.,4.8,,0,0.,4.8,0.,4.8
1979-03-01 12:01:26.960 ,1,0,,0,0.,4.8,0.,4.8,,0,0.,4.8,0.,4.8
1979-03-01 12:01:31.760 ,1,0,,0,0.,4.8,0.,4.8,,0,0.,4.8,0.,4.8
1979-03-01 12:01:36.560 ,1,0,,0,0.,4.8,0.,4.8,,0,0.,4.8,0.,4.8
1979-03-01 12:01:41.360 ,1,0,,0,0.,4.8,0.,4.8,,0,0.,4.8,1.,4.8
1979-03-01 12:01:46.160 ,1,0,,0,0.,4.8,0.,4.8,,0,0.,4.8,0.,4.8
1979-03-01 12:01:50.960 ,0,0,,0,0.,4.8,0.,4.8,,0,0.,4.8,0.,4.8
1979-03-01 12:01:55.760 ,0,0,,0,0.,4.8,0.,4.8,,0,0.,4.8,1.,4.8
1979-03-01 12:02:00.560 ,0,0,,0,0.,4.8,0.,4.8,,0,0.,4.8,0.,4.8
1979-03-01 12:02:05.360 ,0,0,,0,0.,4.8,0.,4.8,,0,0.,4.8,0.,4.8
1979-03-01 12:02:10.160 ,0,0,,0,0.,4.8,0.,4.8,,0,0.,4.8,0.,4.8
1979-03-01 12:02:14.960 ,0,0,,0,0.,4.8,0.,4.8,,0,0.,4.8,0.,4.8
1979-03-01 12:02:19.760 ,0,0,,0,0.,4.8,0.,4.8,,0,0.,4.8,1.,4.8
1979-03-01 12:02:24.560 ,0,0,,0,0.,4.8,0.,4.8,,0,0.,4.8,0.,4.8
1979-03-01 12:02:29.360 ,0,0,,0,0.,4.8,0.,4.8,,0,1.,4.8,0.,4.8
1979-03-01 12:02:34.160 ,0,0,,0,0.,4.8,0.,4.8,,0,0.,4.8,0.,4.8
1979-03-01 12:02:38.960 ,1,0,,0,0.,4.8,0.,4.8,,0,0.,4.8,0.,4.8
1979-03-01 12:02:43.760 ,1,0,,0,0.,4.8,0.,4.8,,0,0.,4.8,0.,4.8
1979-03-01 12:02:48.560 ,1,0,,0,0.,4.8,0.,4.8,,0,0.,4.8,0.,4.8
1979-03-01 12:02:53.360 ,1,0,,0,0.,4.8,0.,4.8,,0,0.,4.8,0.,4.8
1979-03-01 12:02:58.160 ,1,0,,0,0.,4.8,0.,4.8,,0,0.,4.8,0.,4.8
1979-03-01 12:03:02.960 ,2,0,,0,0.,4.8,0.,4.8,,0,0.,4.8,0.,4.8
1979-03-01 12:03:07.760 ,2,0,,0,0.,4.8,0.,4.8,,0,0.,4.8,0.,4.8
1979-03-01 12:03:12.560 ,2,0,,0,0.,4.8,1.,4.8,,0,0.,4.8,0.,4.8
1979-03-01 12:03:17.360 ,2,0,,0,0.,4.8,0.,4.8,,0,0.,4.8,0.,4.8
1979-03-01 12:03:22.160 ,2,0,,0,0.,4.8,0.,4.8,,0,0.,4.8,0.,4.8
1979-03-01 12:03:26.960 ,3,0,,0,0.,4.8,0.,4.8,,0,0.,4.8,0.,4.8
1979-03-01 12:03:31.760 ,3,0,,0,0.,4.8,0.,4.8,,0,0.,4.8,2.,4.8
1979-03-01 12:03:36.560 ,3,0,,0,0.,4.8,0.,4.8,,0,0.,4.8,2.,4.8
1979-03-01 12:03:41.360 ,3,0,,0,0.,4.8,0.,4.8,,0,0.,4.8,2.,4.8
1979-03-01 12:03:46.160 ,3,0,,0,0.,4.8,0.,4.8,,0,0.,4.8,1.,4.8
1979-03-01 12:03:50.960 ,4,0,,0,0.,4.8,0.,4.8,,0,0.,4.8,4.,4.8
1979-03-01 12:03:55.760 ,4,0,,0,0.,4.8,0.,4.8,,0,0.,4.8,2.,4.8
1979-03-01 12:04:00.560 ,4,0,,0,0.,4.8,0.,4.8,,0,0.,4.8,0.,4.8
1979-03-01 12:04:05.360 ,4,0,,0,0.,4.8,0.,4.8,,0,0.,4.8,1.,4.8
1979-03-01 12:04:10.160 ,4,0,,0,0.,4.8,0.,4.8,,0,0.,4.8,0.,4.8
1979-03-01 12:04:14.960 ,5,0,,0,0.,4.8,0.,4.8,,0,0.,4.8,0.,4.8
1979-03-01 12:04:19.760 ,5,0,,0,0.,4.8,0.,4.8,,0,0.,4.8,0.,4.8
1979-03-01 12:04:24.550 ,5,0,,0,0.,4.8,0.,4.8,,0,0.,4.8,0.,4.8
1979-03-01 12:04:29.360 ,5,0,,0,0.,4.8,1.,4.8,,0,0.,4.8,0.,4.8
1979-03-01 12:04:34.150 ,5,0,,0,0.,4.8,0.,4.8,,0,0.,4.8,0.,4.8
1979-03-01 12:04:38.950 ,6,0,,0,0.,4.8,0.,4.8,,0,0.,4.8,0.,4.8
1979-03-01 12:04:43.760 ,6,0,,0,0.,4.8,0.,4.8,,0,0.,4.8,0.,4.8
1979-03-01 12:04:48.550 ,6,0,,0,0.,4.8,0.,4.8,,0,0.,4.8,0.,4.8
1979-03-01 12:04:53.360 ,6,0,,0,0.,4.8,0.,4.8,,0,0.,4.8,0.,4.8
1979-03-01 12:04:58.150 ,6,0,,0,0.,4.8,0.,4.8,,0,0.,4.8,0.,4.8
1979-03-01 12:05:02.950 ,7,0,,0,0.,4.8,0.,4.8,,0,0.,4.8,0.,4.8
1979-03-01 12:05:07.750 ,7,0,,0,1.,4.8,0.,4.8,,0,0.,4.8,0.,4.8
1979-03-01 12:05:12.550 ,7,0,,0,0.,4.8,0.,4.8,,0,0.,4.8,0.,4.8
1979-03-01 12:05:17.350 ,7,0,,0,0.,4.8,0.,4.8,,0,0.,4.8,0.,4.8
1979-03-01 12:05:22.150 ,7,0,,0,0.,4.8,0.,4.8,,0,0.,4.8,0.,4.8
1979-03-01 12:05:26.950 ,7,0,,0,0.,4.8,0.,4.8,,0,0.,4.8,0.,4.8
1979-03-01 12:05:31.760 ,7,0,,0,0.,4.8,0.,4.8,,0,0.,4.8,0.,4.8
1979-03-01 12:05:36.550 ,7,0,,0,0.,4.8,0.,4.8,,0,0.,4.8,0.,4.8
1979-03-01 12:05:41.350 ,7,0,,0,0.,4.8,0.,4.8,,0,0.,4.8,0.,4.8
1979-03-01 12:05:46.150 ,7,0,,0,0.,4.8,0.,4.8,,0,0.,4.8,0.,4.8
1979-03-01 12:05:50.950 ,6,0,,0,0.,4.8,0.,4.8,,0,0.,4.8,0.,4.8
1979-03-01 12:05:55.760 ,6,0,,0,0.,4.8,0.,4.8,,0,0.,4.8,0.,4.8
1979-03-01 12:06:00.550 ,6,0,,0,0.,4.8,0.,4.8,,0,0.,4.8,0.,4.8
1979-03-01 12:06:05.350 ,6,0,,0,0.,4.8,0.,4.8,,0,0.,4.8,0.,4.8
1979-03-01 12:06:10.150 ,6,0,,0,0.,4.8,0.,4.8,,0,0.,4.8,0.,4.8
1979-03-01 12:06:14.950 ,5,0,,0,0.,4.8,0.,4.8,,0,0.,4.8,0.,4.8
1979-03-01 12:06:19.760 ,5,0,,0,0.,4.8,0.,4.8,,0,0.,4.8,0.,4.8
1979-03-01 12:06:24.550 ,5,0,,0,0.,4.8,0.,4.8,,0,0.,4.8,0.,4.8
1979-03-01 12:06:29.350 ,5,0,,0,0.,4.8,0.,4.8,,0,0.,4.8,0.,4.8
1979-03-01 12:06:34.150 ,5,0,,0,0.,4.8,1.,4.8,,0,0.,4.8,0.,4.8
1979-03-01 12:06:38.950 ,4,0,,0,0.,4.8,0.,4.8,,0,0.,4.8,0.,4.8
1979-03-01 12:06:43.750 ,4,0,,0,0.,4.8,0.,4.8,,0,0.,4.8,0.,4.8
1979-03-01 12:06:48.550 ,4,0,,0,0.,4.8,0.,4.8,,0,0.,4.8,2.,4.8
1979-03-01 12:06:53.350 ,4,0,,0,0.,4.8,0.,4.8,,0,0.,4.8,0.,4.8
1979-03-01 12:06:58.150 ,4,0,,0,0.,4.8,0.,4.8,,0,0.,4.8,0.,4.8
1979-03-01 12:07:02.950 ,3,0,,0,0.,4.8,0.,4.8,,0,0.,4.8,0.,4.8
1979-03-01 12:07:07.750 ,3,0,,0,0.,4.8,0.,4.8,,0,0.,4.8,1.,4.8
1979-03-01 12:07:12.550 ,3,0,,0,0.,4.8,0.,4.8,,0,0.,4.8,5.,4.8
1979-03-01 12:07:17.350 ,3,0,,0,0.,4.8,0.,4.8,,0,0.,4.8,5.,4.8
1979-03-01 12:07:22.150 ,3,0,,0,0.,4.8,0.,4.8,,0,0.,4.8,5.,4.8
1979-03-01 12:07:26.950 ,2,0,,0,0.,4.8,0.,4.8,,0,0.,4.8,2.,4.8
1979-03-01 12:07:31.760 ,2,0,,0,0.,4.8,0.,4.8,,0,0.,4.8,3.,4.8
1979-03-01 12:07:36.550 ,2,0,,0,0.,4.8,0.,4.8,,0,0.,4.8,0.,4.8
1979-03-01 12:07:41.350 ,2,0,,0,0.,4.8,0.,4.8,,0,0.,4.8,0.,4.8
1979-03-01 12:07:46.150 ,2,0,,0,0.,4.8,0.,4.8,,0,0.,4.8,0.,4.8
1979-03-01 12:07:50.950 ,1,0,,0,0.,4.8,0.,4.8,,0,0.,4.8,0.,4.8
1979-03-01 12:07:55.750 ,1,0,,0,0.,4.8,0.,4.8,,0,0.,4.8,0.,4.8
1979-03-01 12:08:00.550 ,1,0,,0,0.,4.8,0.,4.8,,0,0.,4.8,0.,4.8
1979-03-01 12:08:05.350 ,1,0,,0,0.,4.8,1.,4.8,,0,0.,4.8,0.,4.8
1979-03-01 12:08:10.150 ,1,0,,0,0.,4.8,0.,4.8,,0,0.,4.8,0.,4.8
1979-03-01 12:08:14.950 ,0,0,,0,0.,4.8,0.,4.8,,0,0.,4.8,0.,4.8
1979-03-01 12:08:19.760 ,0,0,,0,0.,4.8,0.,4.8,,0,0.,4.8,0.,4.8
1979-03-01 12:08:24.550 ,0,0,,0,0.,4.8,1.,4.8,,0,0.,4.8,0.,4.8
1979-03-01 12:08:29.360 ,0,0,,0,0.,4.8,0.,4.8,,0,0.,4.8,0.,4.8
1979-03-01 12:08:34.160 ,0,0,,0,0.,4.8,0.,4.8,,0,0.,4.8,0.,4.8
1979-03-01 12:08:38.960 ,0,0,,0,0.,4.8,0.,4.8,,0,0.,4.8,0.,4.8
1979-03-01 12:08:43.760 ,0,0,,0,0.,4.8,0.,4.8,,0,0.,4.8,0.,4.8
1979-03-01 12:08:48.560 ,0,0,,0,1.,4.8,0.,4.8,,0,0.,4.8,0.,4.8
1979-03-01 12:08:53.360 ,0,0,,0,0.,4.8,0.,4.8,,0,0.,4.8,0.,4.8
1979-03-01 12:08:58.160 ,0,0,,0,0.,4.8,0.,4.8,,0,0.,4.8,0.,4.8
1979-03-01 12:09:02.960 ,1,0,,0,0.,4.8,1.,4.8,,0,0.,4.8,0.,4.8
1979-03-01 12:09:07.760 ,1,0,,0,0.,4.8,0.,4.8,,0,0.,4.8,0.,4.8
1979-03-01 12:09:12.560 ,1,0,,0,0.,4.8,0.,4.8,,0,0.,4.8,0.,4.8
1979-03-01 12:09:17.360 ,1,0,,0,0.,4.8,0.,4.8,,0,0.,4.8,0.,4.8
1979-03-01 12:09:22.160 ,1,0,,0,0.,4.8,0.,4.8,,0,0.,4.8,0.,4.8
1979-03-01 12:09:26.960 ,2,0,,0,0.,4.8,0.,4.8,,0,0.,4.8,0.,4.8
1979-03-01 12:09:31.760 ,2,0,,0,0.,4.8,0.,4.8,,0,0.,4.8,0.,4.8
1979-03-01 12:09:36.560 ,2,0,,0,1.,4.8,0.,4.8,,0,0.,4.8,0.,4.8
1979-03-01 12:09:41.360 ,2,0,,0,0.,4.8,0.,4.8,,0,0.,4.8,0.,4.8
1979-03-01 12:09:46.160 ,2,0,,0,0.,4.8,0.,4.8,,0,0.,4.8,0.,4.8
1979-03-01 12:09:50.960 ,3,0,,0,0.,4.8,0.,4.8,,0,0.,4.8,1.,4.8
1979-03-01 12:09:55.760 ,3,0,,0,0.,4.8,0.,4.8,,0,0.,4.8,0.,4.8
1979-03-01 12:10:00.560 ,3,0,,0,0.,4.8,0.,4.8,,0,0.,4.8,3.,4.8
1979-03-01 12:10:05.360 ,3,0,,0,0.,4.8,0.,4.8,,0,0.,4.8,1.,4.8
1979-03-01 12:10:10.160 ,3,0,,0,0.,4.8,1.,4.8,,0,0.,4.8,2.,4.8
1979-03-01 12:10:14.960 ,4,0,,0,0.,4.8,0.,4.8,,0,0.,4.8,3.,4.8
1979-03-01 12:10:19.760 ,4,0,,0,1.,4.8,0.,4.8,,0,0.,4.8,2.,4.8
1979-03-01 12:10:24.560 ,4,0,,0,0.,4.8,0.,4.8,,0,0.,4.8,0.,4.8
1979-03-01 12:10:29.360 ,4,0,,0,1.,4.8,0.,4.8,,0,0.,4.8,1.,4.8
1979-03-01 12:10:34.160 ,4,0,,0,0.,4.8,0.,4.8,,0,0.,4.8,0.,4.8
1979-03-01 12:10:38.960 ,5,0,,0,0.,4.8,0.,4.8,,0,0.,4.8,0.,4.8
1979-03-01 12:10:43.760 ,5,0,,0,0.,4.8,0.,4.8,,0,0.,4.8,0.,4.8
1979-03-01 12:10:48.560 ,5,0,,0,0.,4.8,0.,4.8,,0,0.,4.8,0.,4.8
1979-03-01 12:10:53.360 ,5,0,,0,0.,4.8,0.,4.8,,0,0.,4.8,0.,4.8
1979-03-01 12:10:58.160 ,5,0,,0,0.,4.8,0.,4.8,,0,0.,4.8,0.,4.8
1979-03-01 12:11:02.960 ,6,0,,0,0.,4.8,0.,4.8,,0,0.,4.8,0.,4.8
1979-03-01 12:11:07.760 ,6,0,,0,0.,4.8,0.,4.8,,0,0.,4.8,0.,4.8
1979-03-01 12:11:12.550 ,6,0,,0,0.,4.8,0.,4.8,,0,0.,4.8,0.,4.8
1979-03-01 12:11:17.360 ,6,0,,0,0.,4.8,0.,4.8,,0,0.,4.8,0.,4.8
1979-03-01 12:11:22.160 ,6,0,,0,0.,4.8,1.,4.8,,0,0.,4.8,0.,4.8
1979-03-01 12:11:26.960 ,7,0,,0,0.,4.8,0.,4.8,,0,0.,4.8,0.,4.8
1979-03-01 12:11:31.760 ,7,0,,0,0.,4.8,0.,4.8,,0,0.,4.8,0.,4.8
1979-03-01 12:11:36.560 ,7,0,,0,0.,4.8,0.,4.8,,0,0.,4.8,0.,4.8
1979-03-01 12:11:41.360 ,7,0,,0,0.,4.8,0.,4.8,,0,0.,4.8,0.,4.8
1979-03-01 12:11:46.160 ,7,0,,0,0.,4.8,0.,4.8,,0,0.,4.8,0.,4.8
1979-03-01 12:11:50.960 ,7,0,,0,0.,4.8,0.,4.8,,0,0.,4.8,0.,4.8
1979-03-01 12:11:55.760 ,7,0,,0,0.,4.8,0.,4.8,,0,0.,4.8,0.,4.8
1979-03-01 12:12:00.560 ,7,0,,0,0.,4.8,0.,4.8,,0,0.,4.8,0.,4.8
1979-03-01 12:12:05.360 ,7,0,,0,0.,4.8,0.,4.8,,0,0.,4.8,0.,4.8
1979-03-01 12:12:10.160 ,7,0,,0,0.,4.8,0.,4.8,,0,0.,4.8,0.,4.8
1979-03-01 12:12:14.960 ,6,0,,0,1.,4.8,0.,4.8,,0,0.,4.8,0.,4.8
1979-03-01 12:12:19.760 ,6,0,,0,0.,4.8,0.,4.8,,0,0.,4.8,0.,4.8
1979-03-01 12:12:24.550 ,6,0,,0,0.,4.8,0.,4.8,,0,0.,4.8,0.,4.8
1979-03-01 12:12:29.360 ,6,0,,0,0.,4.8,0.,4.8,,0,0.,4.8,0.,4.8
1979-03-01 12:12:34.160 ,6,0,,0,0.,4.8,0.,4.8,,0,0.,4.8,0.,4.8
1979-03-01 12:12:38.960 ,5,0,,0,0.,4.8,0.,4.8,,0,0.,4.8,0.,4.8
1979-03-01 12:12:43.760 ,5,0,,0,0.,4.8,0.,4.8,,0,0.,4.8,0.,4.8
1979-03-01 12:12:48.560 ,5,0,,0,0.,4.8,0.,4.8,,0,0.,4.8,0.,4.8
1979-03-01 12:12:53.360 ,5,0,,0,0.,4.8,0.,4.8,,0,0.,4.8,0.,4.8
1979-03-01 12:12:58.160 ,5,0,,0,0.,4.8,0.,4.8,,0,0.,4.8,0.,4.8
1979-03-01 12:13:02.960 ,4,0,,0,0.,4.8,0.,4.8,,0,0.,4.8,0.,4.8
1979-03-01 12:13:07.760 ,4,0,,0,0.,4.8,0.,4.8,,0,0.,4.8,0.,4.8
1979-03-01 12:13:12.550 ,4,0,,0,0.,4.8,0.,4.8,,0,0.,4.8,1.,4.8
1979-03-01 12:13:17.360 ,4,0,,0,0.,4.8,0.,4.8,,0,0.,4.8,0.,4.8
1979-03-01 12:13:22.160 ,4,0,,0,0.,4.8,0.,4.8,,0,0.,4.8,0.,4.8
1979-03-01 12:14:14.960 ,0,0,,0,0.,4.8,0.,4.8,,0,0.,4.8,1.,4.8
1979-03-01 12:14:19.760 ,0,0,,0,0.,4.8,0.,4.8,,0,0.,4.8,0.,4.8
1979-03-01 12:14:24.550 ,0,0,,0,0.,4.8,0.,4.8,,0,0.,4.8,0.,4.8
1979-03-01 12:14:29.360 ,0,0,,0,0.,4.8,0.,4.8,,0,0.,4.8,0.,4.8
1979-03-01 12:14:34.160 ,0,0,,0,0.,4.8,0.,4.8,,0,0.,4.8,0.,4.8
1979-03-01 12:14:38.960 ,0,0,,0,0.,4.8,0.,4.8,,0,0.,4.8,0.,4.8
1979-03-01 12:14:43.760 ,0,0,,0,0.,4.8,0.,4.8,,0,0.,4.8,0.,4.8
1979-03-01 12:14:48.560 ,0,0,,0,0.,4.8,0.,4.8,,0,0.,4.8,0.,4.8
1979-03-01 12:14:53.360 ,0,0,,0,0.,4.8,0.,4.8,,0,0.,4.8,0.,4.8
1979-03-01 12:14:58.160 ,0,0,,0,0.,4.8,0.,4.8,,0,0.,4.8,0.,4.8
1979-03-01 12:15:02.960 ,0,0,,0,0.,4.8,0.,4.8,,0,0.,4.8,1.,4.8
1979-03-01 12:15:07.760 ,0,0,,0,0.,4.8,0.,4.8,,0,0.,4.8,0.,4.8
1979-03-01 12:15:12.550 ,0,0,,0,0.,4.8,0.,4.8,,0,0.,4.8,0.,4.8
1979-03-01 12:15:17.360 ,0,0,,0,0.,4.8,0.,4.8,,0,0.,4.8,0.,4.8
1979-03-01 12:15:22.160 ,0,0,,0,0.,4.8,0.,4.8,,0,0.,4.8,0.,4.8
1979-03-01 12:15:26.960 ,1,0,,0,0.,4.8,0.,4.8,,0,0.,4.8,0.,4.8
1979-03-01 12:15:31.760 ,1,0,,0,0.,4.8,0.,4.8,,0,0.,4.8,0.,4.8
1979-03-01 12:15:36.550 ,1,0,,0,0.,4.8,0.,4.8,,0,0.,4.8,0.,4.8
1979-03-01 12:15:41.360 ,1,0,,0,0.,4.8,0.,4.8,,0,0.,4.8,0.,4.8
1979-03-01 12:15:46.160 ,1,0,,0,0.,4.8,0.,4.8,,0,1.,4.8,0.,4.8
1979-03-01 12:15:50.960 ,2,0,,0,0.,4.8,0.,4.8,,0,0.,4.8,0.,4.8
1979-03-01 12:15:55.760 ,2,0,,0,0.,4.8,0.,4.8,,0,0.,4.8,0.,4.8
1979-03-01 12:16:00.560 ,2,0,,0,0.,4.8,0.,4.8,,0,0.,4.8,1.,4.8
1979-03-01 12:16:05.360 ,2,0,,0,0.,4.8,0.,4.8,,0,0.,4.8,0.,4.8
1979-03-01 12:16:10.160 ,2,0,,0,0.,4.8,0.,4.8,,0,0.,4.8,0.,4.8
1979-03-01 12:16:14.960 ,3,0,,0,0.,4.8,0.,4.8,,0,0.,4.8,1.,4.8
1979-03-01 12:16:19.760 ,3,0,,0,0.,4.8,1.,4.8,,0,0.,4.8,1.,4.8
1979-03-01 12:16:24.550 ,3,0,,0,0.,4.8,0.,4.8,,0,0.,4.8,2.,4.8
1979-03-01 12:16:29.360 ,3,0,,0,0.,4.8,0.,4.8,,0,0.,4.8,2.,4.8
1979-03-01 12:16:34.160 ,3,0,,0,0.,4.8,0.,4.8,,0,0.,4.8,2.,4.8
1979-03-01 12:16:38.960 ,4,0,,0,0.,4.8,0.,4.8,,0,0.,4.8,2.,4.8
1979-03-01 12:16:43.760 ,4,0,,0,0.,4.8,0.,4.8,,0,0.,4.8,4.,4.8
1979-03-01 12:16:48.560 ,4,0,,0,0.,4.8,0.,4.8,,0,0.,4.8,0.,4.8
1979-03-01 12:16:53.360 ,4,0,,0,0.,4.8,0.,4.8,,0,0.,4.8,0.,4.8
1979-03-01 12:16:58.160 ,4,0,,0,0.,4.8,0.,4.8,,0,0.,4.8,0.,4.8
1979-03-01 12:17:02.960 ,5,0,,0,0.,4.8,0.,4.8,,0,0.,4.8,0.,4.8
1979-03-01 12:17:07.760 ,5,0,,0,0.,4.8,0.,4.8,,0,0.,4.8,0.,4.8
1979-03-01 12:17:12.560 ,5,0,,0,0.,4.8,0.,4.8,,0,0.,4.8,0.,4.8
1979-03-01 12:17:17.350 ,5,0,,0,0.,4.8,0.,4.8,,0,0.,4.8,0.,4.8
1979-03-01 12:17:22.160 ,5,0,,0,0.,4.8,0.,4.8,,0,0.,4.8,0.,4.8
1979-03-01 12:17:26.950 ,6,0,,0,0.,4.8,0.,4.8,,0,0.,4.8,0.,4.8
1979-03-01 12:17:31.760 ,6,0,,0,0.,4.8,0.,4.8,,0,0.,4.8,0.,4.8
1979-03-01 12:17:36.550 ,6,0,,0,0.,4.8,0.,4.8,,0,0.,4.8,0.,4.8
1979-03-01 12:17:41.350 ,6,0,,0,0.,4.8,0.,4.8,,0,0.,4.8,0.,4.8
1979-03-01 12:17:46.160 ,6,0,,0,0.,4.8,0.,4.8,,0,0.,4.8,0.,4.8
1979-03-01 12:17:50.950 ,7,0,,0,0.,4.8,0.,4.8,,0,0.,4.8,0.,4.8
1979-03-01 12:17:55.760 ,7,0,,0,0.,4.8,0.,4.8,,0,0.,4.8,0.,4.8
1979-03-01 12:18:00.550 ,7,0,,0,0.,4.8,0.,4.8,,0,0.,4.8,0.,4.8
1979-03-01 12:18:05.350 ,7,0,,0,0.,4.8,0.,4.8,,0,0.,4.8,0.,4.8
1979-03-01 12:18:10.150 ,7,0,,0,0.,4.8,0.,4.8,,0,0.,4.8,0.,4.8
1979-03-01 12:18:14.950 ,7,0,,0,0.,4.8,0.,4.8,,0,0.,4.8,0.,4.8
1979-03-01 12:18:19.760 ,7,0,,0,0.,4.8,0.,4.8,,0,0.,4.8,0.,4.8
1979-03-01 12:18:24.550 ,7,0,,0,0.,4.8,0.,4.8,,0,0.,4.8,0.,4.8
1979-03-01 12:18:29.350 ,7,0,,0,0.,4.8,0.,4.8,,0,0.,4.8,0.,4.8
1979-03-01 12:18:34.160 ,7,0,,0,0.,4.8,0.,4.8,,0,0.,4.8,0.,4.8
1979-03-01 12:18:38.950 ,6,0,,0,0.,4.8,0.,4.8,,0,0.,4.8,0.,4.8
1979-03-01 12:18:43.760 ,6,0,,0,0.,4.8,0.,4.8,,0,0.,4.8,0.,4.8
1979-03-01 12:18:48.550 ,6,0,,0,0.,4.8,0.,4.8,,0,0.,4.8,0.,4.8
1979-03-01 12:18:53.350 ,6,0,,0,0.,4.8,0.,4.8,,0,0.,4.8,0.,4.8
1979-03-01 12:18:58.150 ,6,0,,0,0.,4.8,0.,4.8,,0,0.,4.8,0.,4.8
1979-03-01 12:19:02.950 ,5,0,,0,0.,4.8,0.,4.8,,0,0.,4.8,0.,4.8
1979-03-01 12:19:07.760 ,5,0,,0,0.,4.8,0.,4.8,,0,0.,4.8,0.,4.8
1979-03-01 12:19:12.550 ,5,0,,0,0.,4.8,0.,4.8,,0,0.,4.8,0.,4.8
1979-03-01 12:19:17.350 ,5,0,,0,0.,4.8,0.,4.8,,0,0.,4.8,0.,4.8
1979-03-01 12:19:22.150 ,5,0,,0,0.,4.8,0.,4.8,,0,0.,4.8,0.,4.8
1979-03-01 12:19:26.950 ,4,0,,0,0.,4.8,0.,4.8,,0,0.,4.8,0.,4.8
1979-03-01 12:19:31.760 ,4,0,,0,0.,4.8,0.,4.8,,0,0.,4.8,0.,4.8
1979-03-01 12:19:36.550 ,4,0,,0,0.,4.8,0.,4.8,,0,0.,4.8,0.,4.8
1979-03-01 12:19:41.350 ,4,0,,0,0.,4.8,0.,4.8,,0,0.,4.8,0.,4.8
1979-03-01 12:19:46.160 ,4,0,,0,0.,4.8,0.,4.8,,0,0.,4.8,0.,4.8
1979-03-01 12:19:50.950 ,3,0,,0,0.,4.8,0.,4.8,,0,0.,4.8,0.,4.8
1979-03-01 12:19:55.760 ,3,0,,0,0.,4.8,0.,4.8,,0,1.,4.8,1.,4.8
1979-03-01 12:20:00.550 ,3,0,,0,0.,4.8,0.,4.8,,0,0.,4.8,2.,4.8
1979-03-01 12:20:05.350 ,3,0,,0,0.,4.8,0.,4.8,,0,0.,4.8,0.,4.8
1979-03-01 12:20:10.150 ,3,0,,0,0.,4.8,0.,4.8,,0,0.,4.8,1.,4.8
1979-03-01 12:20:14.950 ,2,0,,0,0.,4.8,0.,4.8,,0,0.,4.8,4.,4.8
1979-03-01 12:20:19.760 ,2,0,,0,0.,4.8,0.,4.8,,0,0.,4.8,2.,4.8
1979-03-01 12:20:24.550 ,2,0,,0,0.,4.8,0.,4.8,,0,0.,4.8,0.,4.8
1979-03-01 12:20:29.350 ,2,0,,0,0.,4.8,0.,4.8,,0,0.,4.8,0.,4.8
1979-03-01 12:20:34.150 ,2,0,,0,0.,4.8,0.,4.8,,0,0.,4.8,0.,4.8
1979-03-01 12:20:38.950 ,1,0,,0,0.,4.8,1.,4.8,,0,0.,4.8,0.,4.8
1979-03-01 12:20:43.760 ,1,0,,0,0.,4.8,0.,4.8,,0,0.,4.8,0.,4.8
1979-03-01 12:20:48.550 ,1,0,,0,0.,4.8,0.,4.8,,0,0.,4.8,0.,4.8
1979-03-01 12:20:53.350 ,1,0,,0,0.,4.8,0.,4.8,,0,0.,4.8,0.,4.8
1979-03-01 12:20:58.150 ,1,0,,0,0.,4.8,0.,4.8,,0,0.,4.8,0.,4.8
1979-03-01 12:21:02.950 ,0,0,,0,0.,4.8,0.,4.8,,0,0.,4.8,0.,4.8
1979-03-01 12:21:07.760 ,0,0,,0,0.,4.8,0.,4.8,,0,0.,4.8,0.,4.8
1979-03-01 12:21:12.550 ,0,0,,0,0.,4.8,0.,4.8,,0,0.,4.8,0.,4.8
1979-03-01 12:21:17.350 ,0,0,,0,0.,4.8,0.,4.8,,0,0.,4.8,0.,4.8
1979-03-01 12:21:22.150 ,0,0,,0,0.,4.8,0.,4.8,,0,0.,4.8,0.,4.8
1979-03-01 12:21:26.950 ,0,0,,0,0.,4.8,0.,4.8,,0,0.,4.8,0.,4.8
1979-03-01 12:21:31.760 ,0,0,,0,0.,4.8,0.,4.8,,0,0.,4.8,0.,4.8
1979-03-01 12:21:36.550 ,0,0,,0,0.,4.8,1.,4.8,,0,0.,4.8,0.,4.8
1979-03-01 12:21:41.350 ,0,0,,0,0.,4.8,0.,4.8,,0,0.,4.8,0.,4.8
1979-03-01 12:21:46.160 ,0,0,,0,0.,4.8,0.,4.8,,0,0.,4.8,1.,4.8
1979-03-01 12:21:50.950 ,1,0,,0,0.,4.8,0.,4.8,,0,0.,4.8,0.,4.8
1979-03-01 12:21:55.760 ,1,0,,0,0.,4.8,0.,4.8,,0,0.,4.8,0.,4.8
1979-03-01 12:22:00.550 ,1,0,,0,0.,4.8,0.,4.8,,0,0.,4.8,0.,4.8
1979-03-01 12:22:05.350 ,1,0,,0,0.,4.8,0.,4.8,,0,0.,4.8,0.,4.8
1979-03-01 12:22:10.150 ,1,0,,0,0.,4.8,0.,4.8,,0,0.,4.8,0.,4.8
1979-03-01 12:22:14.950 ,2,0,,0,0.,4.8,0.,4.8,,0,0.,4.8,0.,4.8
1979-03-01 12:22:19.760 ,2,0,,0,0.,4.8,0.,4.8,,0,0.,4.8,0.,4.8
1979-03-01 12:22:24.550 ,2,0,,0,0.,4.8,0.,4.8,,0,0.,4.8,0.,4.8
1979-03-01 12:22:29.350 ,2,0,,0,0.,4.8,0.,4.8,,0,0.,4.8,0.,4.8
1979-03-01 12:22:34.150 ,2,0,,0,0.,4.8,0.,4.8,,0,0.,4.8,0.,4.8
1979-03-01 12:22:38.950 ,3,0,,0,0.,4.8,0.,4.8,,0,0.,4.8,0.,4.8
1979-03-01 12:22:43.760 ,3,0,,0,0.,4.8,0.,4.8,,0,0.,4.8,2.,4.8
1979-03-01 12:22:48.550 ,3,0,,0,0.,4.8,0.,4.8,,0,0.,4.8,3.,4.8
1979-03-01 12:22:53.350 ,3,0,,0,0.,4.8,0.,4.8,,0,0.,4.8,2.,4.8
1979-03-01 12:22:58.150 ,3,0,,0,0.,4.8,0.,4.8,,0,0.,4.8,1.,4.8
1979-03-01 12:23:02.950 ,4,0,,0,0.,4.8,0.,4.8,,0,0.,4.8,2.,4.8
1979-03-01 12:23:07.760 ,4,0,,0,0.,4.8,1.,4.8,,0,0.,4.8,2.,4.8
1979-03-01 12:23:12.550 ,4,0,,0,0.,4.8,0.,4.8,,0,0.,4.8,0.,4.8
1979-03-01 12:23:17.350 ,4,0,,0,0.,4.8,0.,4.8,,0,0.,4.8,0.,4.8
1979-03-01 12:23:22.150 ,4,0,,0,0.,4.8,0.,4.8,,0,0.,4.8,0.,4.8
1979-03-01 12:23:26.950 ,5,0,,0,0.,4.8,0.,4.8,,0,0.,4.8,0.,4.8
1979-03-01 12:23:31.760 ,5,0,,0,0.,4.8,0.,4.8,,0,0.,4.8,0.,4.8
1979-03-01 12:23:36.550 ,5,0,,0,0.,4.8,0.,4.8,,0,0.,4.8,0.,4.8
1979-03-01 12:23:41.350 ,5,0,,0,0.,4.8,0.,4.8,,0,0.,4.8,0.,4.8
1979-03-01 12:23:46.160 ,5,0,,0,0.,4.8,0.,4.8,,0,0.,4.8,0.,4.8
1979-03-01 12:23:50.950 ,6,0,,0,0.,4.8,0.,4.8,,0,0.,4.8,0.,4.8
1979-03-01 12:23:55.760 ,6,0,,0,0.,4.8,0.,4.8,,0,0.,4.8,0.,4.8
1979-03-01 12:24:00.550 ,6,0,,0,0.,4.8,0.,4.8,,0,0.,4.8,0.,4.8
1979-03-01 12:24:05.350 ,6,0,,0,0.,4.8,0.,4.8,,0,0.,4.8,0.,4.8
1979-03-01 12:24:10.160 ,6,0,,0,0.,4.8,0.,4.8,,0,0.,4.8,0.,4.8
1979-03-01 12:24:14.950 ,7,0,,0,0.,4.8,0.,4.8,,0,0.,4.8,0.,4.8
1979-03-01 12:24:19.760 ,7,0,,0,0.,4.8,0.,4.8,,0,0.,4.8,0.,4.8
1979-03-01 12:24:24.550 ,7,0,,0,0.,4.8,0.,4.8,,0,1.,4.8,0.,4.8
1979-03-01 12:24:29.350 ,7,0,,0,0.,4.8,0.,4.8,,0,0.,4.8,0.,4.8
1979-03-01 12:24:34.160 ,7,0,,0,0.,4.8,0.,4.8,,0,0.,4.8,0.,4.8
1979-03-01 12:24:38.950 ,7,0,,0,0.,4.8,0.,4.8,,0,0.,4.8,0.,4.8
1979-03-01 12:24:43.760 ,7,0,,0,0.,4.8,0.,4.8,,0,1.,4.8,0.,4.8
1979-03-01 12:24:48.550 ,7,0,,0,0.,4.8,0.,4.8,,0,0.,4.8,0.,4.8
1979-03-01 12:24:53.350 ,7,0,,0,0.,4.8,0.,4.8,,0,0.,4.8,0.,4.8
1979-03-01 12:24:58.160 ,7,0,,0,0.,4.8,0.,4.8,,0,0.,4.8,0.,4.8
1979-03-01 12:25:02.950 ,6,0,,0,0.,4.8,0.,4.8,,0,0.,4.8,0.,4.8
1979-03-01 12:25:07.760 ,6,0,,0,0.,4.8,0.,4.8,,0,0.,4.8,0.,4.8
1979-03-01 12:25:12.550 ,6,0,,0,0.,4.8,0.,4.8,,0,0.,4.8,0.,4.8
1979-03-01 12:25:17.350 ,6,0,,0,0.,4.8,0.,4.8,,0,0.,4.8,0.,4.8
1979-03-01 12:25:22.160 ,6,0,,0,0.,4.8,0.,4.8,,0,0.,4.8,1.,4.8
1979-03-01 12:25:26.950 ,5,0,,0,0.,4.8,0.,4.8,,0,0.,4.8,0.,4.8
1979-03-01 12:25:31.760 ,5,0,,0,0.,4.8,0.,4.8,,0,0.,4.8,0.,4.8
1979-03-01 12:25:36.550 ,5,0,,0,0.,4.8,0.,4.8,,0,0.,4.8,0.,4.8
1979-03-01 12:25:41.350 ,5,0,,0,0.,4.8,1.,4.8,,0,0.,4.8,0.,4.8
1979-03-01 12:25:46.160 ,5,0,,0,0.,4.8,0.,4.8,,0,0.,4.8,0.,4.8
1979-03-01 12:25:50.950 ,4,0,,0,0.,4.8,0.,4.8,,0,0.,4.8,0.,4.8
1979-03-01 12:25:55.760 ,4,0,,0,0.,4.8,1.,4.8,,0,0.,4.8,0.,4.8
1979-03-01 12:26:00.550 ,4,0,,0,0.,4.8,0.,4.8,,0,0.,4.8,0.,4.8
1979-03-01 12:26:05.350 ,4,0,,0,0.,4.8,0.,4.8,,0,0.,4.8,0.,4.8
1979-03-01 12:26:10.160 ,4,0,,0,0.,4.8,0.,4.8,,0,0.,4.8,0.,4.8
1979-03-01 12:26:14.950 ,3,0,,0,0.,4.8,0.,4.8,,0,0.,4.8,0.,4.8
1979-03-01 12:26:19.760 ,3,0,,0,0.,4.8,0.,4.8,,0,0.,4.8,0.,4.8
1979-03-01 12:26:24.550 ,3,0,,0,0.,4.8,0.,4.8,,0,0.,4.8,0.,4.8
1979-03-01 12:26:29.350 ,3,0,,0,0.,4.8,0.,4.8,,0,0.,4.8,2.,4.8
1979-03-01 12:26:34.160 ,3,0,,0,0.,4.8,0.,4.8,,0,0.,4.8,1.,4.8
1979-03-01 12:26:38.950 ,2,0,,0,0.,4.8,0.,4.8,,0,0.,4.8,0.,4.8
1979-03-01 12:26:43.760 ,2,0,,0,0.,4.8,0.,4.8,,0,0.,4.8,0.,4.8
1979-03-01 12:26:48.550 ,2,0,,0,0.,4.8,0.,4.8,,0,0.,4.8,0.,4.8
1979-03-01 12:26:53.350 ,2,0,,0,0.,4.8,0.,4.8,,0,0.,4.8,0.,4.8
1979-03-01 12:26:58.150 ,2,0,,0,0.,4.8,0.,4.8,,0,0.,4.8,0.,4.8
1979-03-01 12:27:02.950 ,1,0,,0,0.,4.8,0.,4.8,,0,0.,4.8,1.,4.8
1979-03-01 12:27:07.760 ,1,0,,0,0.,4.8,0.,4.8,,0,0.,4.8,0.,4.8
1979-03-01 12:27:12.550 ,1,0,,0,0.,4.8,0.,4.8,,0,0.,4.8,0.,4.8
1979-03-01 12:27:17.350 ,1,0,,0,0.,4.8,0.,4.8,,0,0.,4.8,0.,4.8
1979-03-01 12:27:22.160 ,1,0,,0,0.,4.8,0.,4.8,,0,0.,4.8,0.,4.8
1979-03-01 12:27:26.950 ,0,0,,0,0.,4.8,0.,4.8,,0,0.,4.8,0.,4.8
1979-03-01 12:27:31.760 ,0,0,,0,0.,4.8,0.,4.8,,0,0.,4.8,0.,4.8
1979-03-01 12:27:36.550 ,0,0,,0,0.,4.8,0.,4.8,,0,0.,4.8,0.,4.8
1979-03-01 12:27:41.350 ,0,0,,0,0.,4.8,0.,4.8,,0,0.,4.8,0.,4.8
1979-03-01 12:27:46.160 ,0,0,,0,0.,4.8,0.,4.8,,0,0.,4.8,0.,4.8
1979-03-01 12:27:50.950 ,0,0,,0,0.,4.8,0.,4.8,,0,0.,4.8,0.,4.8
1979-03-01 12:27:55.760 ,0,0,,0,0.,4.8,1.,4.8,,0,0.,4.8,0.,4.8
1979-03-01 12:28:00.550 ,0,0,,0,0.,4.8,0.,4.8,,0,0.,4.8,0.,4.8
1979-03-01 12:28:05.350 ,0,0,,0,0.,4.8,0.,4.8,,0,0.,4.8,0.,4.8
1979-03-01 12:28:10.160 ,0,0,,0,0.,4.8,0.,4.8,,0,0.,4.8,0.,4.8
1979-03-01 12:28:14.950 ,1,0,,0,0.,4.8,0.,4.8,,0,0.,4.8,0.,4.8
1979-03-01 12:28:19.760 ,1,0,,0,0.,4.8,0.,4.8,,0,0.,4.8,0.,4.8
1979-03-01 12:28:24.550 ,1,0,,0,0.,4.8,0.,4.8,,0,0.,4.8,0.,4.8
1979-03-01 12:28:29.350 ,1,0,,0,0.,4.8,0.,4.8,,0,0.,4.8,0.,4.8
1979-03-01 12:28:34.160 ,1,0,,0,0.,4.8,0.,4.8,,0,0.,4.8,0.,4.8
1979-03-01 12:28:38.950 ,2,0,,0,0.,4.8,0.,4.8,,0,0.,4.8,0.,4.8
1979-03-01 12:28:43.760 ,2,0,,0,0.,4.8,0.,4.8,,0,0.,4.8,0.,4.8
1979-03-01 12:28:48.550 ,2,0,,0,0.,4.8,0.,4.8,,0,0.,4.8,0.,4.8
1979-03-01 12:28:53.350 ,2,0,,0,0.,4.8,0.,4.8,,0,0.,4.8,0.,4.8
1979-03-01 12:28:58.150 ,2,0,,0,0.,4.8,0.,4.8,,0,0.,4.8,0.,4.8
1979-03-01 12:29:02.950 ,3,0,,0,0.,4.8,0.,4.8,,0,0.,4.8,0.,4.8
1979-03-01 12:29:07.760 ,3,0,,0,0.,4.8,0.,4.8,,0,0.,4.8,1.,4.8
1979-03-01 12:29:12.550 ,3,0,,0,0.,4.8,0.,4.8,,0,0.,4.8,1.,4.8
1979-03-01 12:29:17.350 ,3,0,,0,0.,4.8,0.,4.8,,0,0.,4.8,4.,4.8
1979-03-01 12:29:22.160 ,3,0,,0,0.,4.8,0.,4.8,,0,0.,4.8,3.,4.8
1979-03-01 12:29:26.950 ,4,0,,0,0.,4.8,0.,4.8,,0,0.,4.8,4.,4.8
1979-03-01 12:29:31.760 ,4,0,,0,0.,4.8,0.,4.8,,0,0.,4.8,0.,4.8
1979-03-01 12:29:36.550 ,4,0,,0,0.,4.8,0.,4.8,,0,0.,4.8,0.,4.8
1979-03-01 12:29:41.350 ,4,0,,0,0.,4.8,0.,4.8,,0,0.,4.8,1.,4.8
1979-03-01 12:29:46.160 ,4,0,,0,0.,4.8,0.,4.8,,0,0.,4.8,0.,4.8
1979-03-01 12:29:50.950 ,5,0,,0,0.,4.8,0.,4.8,,0,0.,4.8,1.,4.8
1979-03-01 12:29:55.760 ,5,0,,0,0.,4.8,0.,4.8,,0,0.,4.8,1.,4.8
1979-03-01 12:30:00.550 ,5,0,,0,0.,4.8,0.,4.8,,0,0.,4.8,0.,4.8
1979-03-01 12:30:05.350 ,5,0,,0,0.,4.8,0.,4.8,,0,0.,4.8,0.,4.8
1979-03-01 12:30:10.150 ,5,0,,0,0.,4.8,0.,4.8,,0,0.,4.8,1.,4.8
1979-03-01 12:30:14.950 ,6,0,,0,0.,4.8,0.,4.8,,0,0.,4.8,0.,4.8
1979-03-01 12:30:19.760 ,6,0,,0,0.,4.8,0.,4.8,,0,0.,4.8,0.,4.8
1979-03-01 12:30:24.550 ,6,0,,0,0.,4.8,0.,4.8,,0,0.,4.8,0.,4.8
1979-03-01 12:30:29.350 ,6,0,,0,0.,4.8,0.,4.8,,0,0.,4.8,0.,4.8
1979-03-01 12:30:34.160 ,6,0,,0,0.,4.8,0.,4.8,,0,0.,4.8,0.,4.8
1979-03-01 12:30:38.950 ,7,0,,0,0.,4.8,0.,4.8,,0,0.,4.8,0.,4.8
1979-03-01 12:30:43.760 ,7,0,,0,0.,4.8,0.,4.8,,0,0.,4.8,0.,4.8
1979-03-01 12:30:48.550 ,7,0,,0,1.,4.8,0.,4.8,,0,0.,4.8,0.,4.8